Regional Weather Roundup
Issued by NWS Charleston, SC

Current Version | Previous Version | Graphics & Text | Print | Product List | Glossary On
Versions: 1 2 3 4 5 6 7 8 9 10 11 12 13 14 15 16 17 18 19 20 21 22 23 24 25 26 27 28 29 30 31 32 33 34 35 36 37 38 39 40 41 42 43 44 45 46 47 48 49 50
000
ASUS42 KCHS 312012
RWRCHS

REGIONAL WEATHER ROUNDUP
NATIONAL WEATHER SERVICE CHARLESTON SC
300 PM EST SAT JAN 31 2015

NOTE: "FAIR" INDICATES FEW OR NO CLOUDS BELOW 12,000 FEET WITH NO
SIGNIFICANT WEATHER AND/OR OBSTRUCTIONS TO VISIBILITY.

NOT ALL STATIONS ARE QUALITY CONTROLLED BY THE NATIONAL
WEATHER SERVICE. USE DATA WITH CAUTION...ESPECIALLY
DEWPOINT OBSERVATIONS.

SCZ027-030-031-034>040-042>050-312100-
...SOUTHEAST SOUTH CAROLINA...

CITY           SKY/WX    TMP DP  RH WIND       PRES   REMARKS
N CHARLESTON   MOSUNNY   55   6  14 VRB3      30.35F
WATERFRONT PRK   N/A     48 N/A N/A E12         N/A
MOUNT PLEASANT FAIR      50  23  34 S10       30.35F
PINOPOLIS        N/A     52  16  24 VRB2      30.27F
MONCKS CORNER  FAIR      52  12  20 N6        30.35F
SUMMERVILLE    FAIR      55  16  21 SW3       30.35F
BEAUFORT MCAS  SUNNY     53  16  23 SE5       30.35F
BEAUFORT ARPT  FAIR      52  23  32 NE5       30.35F
HILTON HEAD IS SUNNY     48  23  37 NE6       30.37F
WALTERBORO     NOT AVBL
ALLENDALE      FAIR      54  12  19 SE3       30.33F

...SOUTHERN MIDLANDS AND PEE DEE...

CITY           SKY/WX    TMP DP  RH WIND       PRES   REMARKS
GEORGETOWN     NOT AVBL
KINGSTREE      NOT AVBL
ORANGEBURG     SUNNY     52  11  19 S3        30.34F
BARNWELL       FAIR      55  14  19 CALM      30.34F
AIKEN          FAIR      54  16  22 S3        30.35F
MANNING        FAIR      52   9  17 CALM      30.35S
COLUMBIA       MOSUNNY   54  13  19 VRB3      30.33F
SUMTER         SUNNY     52   8  17 CALM      30.32F
FLORENCE       SUNNY     51   9  18 W5        30.34F
MYRTLE BEACH   SUNNY     52   7  16 N8        30.36S
N MYRTLE BEACH SUNNY     51  10  19 N8        30.33F

$$

GAZ063-065-086>088-099>101-113>116-118-119-134>141-150-312100-
...SOUTHEAST GEORGIA...

CITY           SKY/WX    TMP DP  RH WIND       PRES   REMARKS
SAVANNAH ARPT  MOSUNNY   54  16  22 E7        30.35F
HUNTER AAF     SUNNY     53  15  22 E9        30.33F
FORT STEWART   SUNNY     57  22  26 E7        30.32F
STATESBORO     SUNNY     56  20  25 E5        30.33F
SYLVANIA       CLEAR     55  20  25 S3        30.34F
CLAXTON        FAIR      57  23  26 E5        30.33F

...CSRA...CENTRAL AND FAR SOUTHEAST GEORGIA...

CITY           SKY/WX    TMP DP  RH WIND       PRES   REMARKS
THOMSON        MOSUNNY   56  21  26 CALM      30.36F
AUGUSTA-BUSH   SUNNY     55  11  17 CALM      30.33F
AUGUSTA-DANIEL SUNNY     55  12  18 VRB3      30.32F
SWAINSBORO     FAIR     N/A N/A N/A S5        30.33F
VIDALIA        SUNNY     57  21  24 E6        30.33S
EASTMAN        FAIR      59  22  24 E5        30.33F
HAZLEHURST     FAIR      59  22  24 NE3       30.31S
ALMA           SUNNY     58  18  21 VRB5      30.31F
WAYCROSS       SUNNY     62  29  28 E5        30.31F
JESUP          FAIR      63  32  31 CALM      30.32F
BAXLEY         FAIR      61  19  20 SE7       30.31F
BRUNSWICK      SUNNY     54  30  40 E9        30.36S
SAINT SIMONS   SUNNY     53  31  42 NE10      30.36S

$$

SCZ027-028-034-036>038-045-046-048>050-GAZ119-141-312100-
...LAKE AND SUPPLEMENTAL COASTAL OBSERVATIONS...

STATION/POSITION TIME  TEMP    WIND        PRES    WAVE   SWELL
                       AIR SEA DIR/SP/G            HT/PER HT/PER/DIR
                 (UTC) (F)     (DEG/KT/KT) (MB)    (FT/S) (FT/S/D)
UPR LAKE MARION  NOT AVBL
WINYAH BAY       1845   44     110/  6     1027.0
LAKE MURRAY      1900   47     160/  4/  4 1027.1F
ACE BASIN NERRS  NOT AVBL
FORT PULASKI     1900   46 52   80/ 10/ 12 1028.9F
SAPELO ISLAND    1900   53      60/  9     1028.0S

$$

ANZ835-935-AMZ111-154-330-350-352-354-370-450-454-472-312100-
...C-MAN AND BUOY OBSERVATIONS...

STATION/POSITION TIME  TEMP    WIND        PRES    WAVE   SWELL
                       AIR SEA DIR/SP/G            HT/PER HT/PER/DIR
                 (UTC) (F)     (DEG/KT/KT) (MB)    (FT/S) (FT/S/D)
BUOY 41004       1950   47 67   30/ 12/ 17 1027.7R   5/ 6   3/ 6
BUOY 41008       1950   49 54   60/ 12/ 16 1027.4F   4/ 6   3/ 60/ 6
FOLLY BEACH CMAN 2000   46     110/  6/  7 1028.4F
CAPERS NEARSHORE 1900   47     120/  6/  8   N/A
FRIPP NEARSHORE  1900   47      70/  4/  6 1027.6F


STATION/POSITION TIME  TEMP    WIND        PRES    WAVE   SWELL
                       AIR SEA DIR/SP/G            HT/PER HT/PER/DIR
                 (UTC) (F)     (DEG/KT/KT) (MB)    (FT/S) (FT/S/D)
5E ST. MARYS GA  1921      56                N/A     4/ 6
FRYING PAN BUOY  1950   42 63   20/  8/ 12 1028.3F   4/10   3/ 80/10
BUOY 41025       1950   37 63  330/ 14/ 19 1025.7F   6/10   3/ 30/10
CAPE LOOKOUT NC  1900   40     310/  6/  7 1026.8F
BUOY 41002       1950   54 69  340/ 17/ 23 1025.0R  10/ 9   8/340/ 9
BUOY 41010       1920   63 74   30/ 14/ 17 1025.0S
ST AUGUSTINE FL  2000   56      20/ 14/ 16 1026.8F


$$



USA.gov is the U.S. government's official web portal to all federal, state and local government web resources and services.